Back to catalog

CZ-4C R/B

AliveLEO
NORAD 39014·ROCKET BODY·🇨🇳 China

Launched Nov 25, 2012 from Jiuquan Satellite Launch Center

Loading…

Next Passes (next 24 hours)

TLE

FreshSource: Space-Track

Epoch: Sep 14, 2026, 13:11 UTC

1 39014U 12066D   26257.54972296  .00000675  00000-0  20234-3 0  9990
2 39014  63.3813 197.0924 0633965  12.0368 349.5043 13.72131743690800

Track CZ-4C R/B in real time with AllMySat

Download on the App Store